Voltar ao catálogo

COSMOS 2034

AtivoMilitarPO
NORAD 20149·PAYLOAD·🇷🇺 Russia

Lançado Jul 25, 1989 de Plesetsk Cosmodrome

Loading…

Próximas Passagens (próximas 24 horas)

TLE

AtualizadoSource: Space-Track

Época: Sep 14, 2026, 11:00 UTC

1 20149U 89059A   26257.45853150  .00000063  00000-0  51336-4 0  9991
2 20149  82.9433 148.8290 0031429 359.0447 174.3741 13.73703248861369

Acompanhe COSMOS 2034 em tempo real com AllMySat

Download on the App Store